Wind_Speed
7 7 7 7 7 6 6 5 6 5 5 5 5 5 5 5 5 5 6 6 7 6 5 4 3 2 1 1 1 2 2 4 6 6 4 3 4 5 5 4 3 2 2 2 4 6 3 2 3 5 4 3 2 1 1 2 2 2 2 3 3 3 3 5 7 5 0 1 6 7 7 8 5 5 3 2 4 3 2 4 3 3 4 2 3 2 7 15
7 7 7 6 7 7 6 5 6 6 6 6 6 6 6 6 5 6 6 6 7 6 5 4 3 2 2 1 2 2 3 6 8 7 4 4 5 5 5 4 4 3 3 2 4 6 4 3 4 4 2 1 1 1 1 1 2 1 1 3 4 3 2 2 5 5 0 1 5 7 5 5 4 5 5 5 5 4 6 6 5 6 7 7 5 5 10 14
7 7 7 6 6 6 6 5 7 7 6 6 6 6 7 7 6 6 6 6 6 6 5 4 3 3 2 2 2 1 5 7 5 4 3 4 6 6 5 4 4 4 3 3 4 5 5 6 6 4 2 2 1 0 1 2 2 0 1 5 2 2 1 1 4 4 0 2 4 8 3 3 2 3 5 5 4 4 9 8 6 8 10 10 9 9 11 14
7 7 6 5 5 6 6 5 6 7 7 6 7 7 7 7 7 7 7 7 7 6 5 4 3 3 2 2 1 2 6 6 2 1 2 5 7 7 5 5 4 4 3 3 5 5 6 7 5 2 2 3 2 0 1 2 1 1 1 3 2 1 1 2 3 1 1 3 2 6 5 4 3 2 4 4 5 6 10 9 9 9 7 9 11 12 14 15
8 7 6 5 5 5 6 5 5 5 5 6 6 6 6 7 7 7 8 7 7 7 5 4 3 3 2 1 1 2 3 3 3 2 4 6 7 7 6 5 4 4 3 3 5 6 6 5 3 2 2 3 2 1 1 3 1 2 0 2 3 0 1 3 0 0 0 2 2 5 5 4 4 3 5 6 8 6 2 3 7 6 1 7 11 13 14 15
8 7 6 5 5 5 5 5 4 4 4 4 5 6 6 6 7 8 7 7 7 7 6 5 4 3 2 1 1 2 1 1 2 3 5 7 7 6 6 6 5 5 3 3 4 4 4 2 2 2 2 2 1 2 2 1 2 1 1 1 1 1 2 3 1 0 1 2 4 4 2 3 4 5 3 7 13 3 5 3 1 2 3 4 9 14 14 15
8 7 6 5 5 4 4 4 5 5 5 4 5 6 6 6 7 8 8 8 7 7 6 5 4 3 3 2 3 2 1 1 1 5 7 7 7 6 6 6 5 4 3 3 3 2 2 2 3 2 3 3 1 3 2 0 1 1 3 3 2 1 2 2 1 1 1 3 1 1 1 3 6 5 2 6 16 6 3 2 2 2 2 3 8 13 14 15
8 7 6 6 5 4 4 4 4 5 5 4 4 5 5 5 6 8 8 8 8 7 7 6 5 4 4 4 2 2 2 1 2 6 8 7 6 5 5 5 4 3 3 5 3 2 2 2 4 3 2 3 2 3 1 2 1 0 4 4 2 1 1 2 1 2 1 2 0 1 3 2 2 1 2 10 14 6 2 2 1 1 3 6 8 11 13 14
7 7 6 6 6 5 4 4 4 4 5 3 3 5 5 5 6 7 7 8 8 8 7 7 6 5 5 4 2 3 2 1 4 7 8 8 6 4 4 4 4 3 4 7 4 2 2 2 3 4 3 4 2 3 1 2 2 2 4 4 3 2 2 2 2 2 1 1 1 5 4 1 0 1 7 12 7 1 0 2 3 2 4 7 7 10 12 12
5 7 7 5 6 5 5 6 5 4 5 3 3 4 5 5 6 6 6 7 8 8 7 7 7 6 6 4 2 4 2 2 6 8 8 8 6 5 4 4 4 3 5 7 6 3 1 3 4 2 5 5 2 2 2 1 2 3 4 4 4 3 2 1 2 2 1 1 1 5 3 1 1 2 7 4 3 3 2 4 3 4 7 8 6 7 9 10
5 6 7 5 6 5 5 6 6 5 5 4 4 4 4 5 6 6 6 7 7 7 7 7 7 5 5 4 3 3 3 4 7 8 9 9 6 5 5 5 5 5 6 7 6 5 4 7 7 2 2 3 3 3 2 1 2 3 3 4 5 3 3 2 0 1 1 2 1 3 3 1 3 5 8 1 4 2 2 5 4 6 7 6 6 5 6 9
6 7 7 5 5 5 4 4 5 5 5 5 5 4 4 5 6 7 7 8 7 7 7 6 6 5 4 2 1 3 5 5 7 8 8 9 8 7 7 6 6 5 5 6 5 6 9 9 6 3 2 3 4 3 3 2 0 2 1 2 3 1 2 2 1 2 3 1 1 2 5 6 8 12 8 4 2 2 1 5 5 7 7 5 5 5 6 8
7 7 7 6 5 4 4 4 4 5 5 5 5 5 5 6 6 7 8 8 8 7 7 7 6 5 3 1 3 5 6 6 7 9 10 10 10 10 9 8 8 7 7 8 7 7 8 5 4 6 3 1 3 1 4 3 1 2 1 1 1 3 2 2 2 1 2 1 1 2 5 6 10 14 4 6 2 2 4 8 6 6 5 5 5 5 7 8
7 7 7 6 5 4 3 3 4 4 5 5 5 6 6 7 7 6 8 8 8 7 7 7 6 5 2 1 3 5 6 6 9 11 11 12 12 12 11 9 9 10 11 13 12 9 8 7 9 9 3 2 3 3 4 3 1 2 1 0 0 3 2 3 2 1 3 2 0 3 6 5 6 6 3 5 1 2 8 10 8 7 5 5 5 6 7 8
7 7 7 6 5 5 4 4 4 4 5 5 5 6 7 8 8 7 8 8 7 7 7 6 5 4 2 2 2 4 5 6 8 9 10 12 12 10 10 11 12 13 13 14 14 11 9 7 7 5 3 1 3 5 3 2 2 2 1 2 1 3 1 3 2 0 1 1 1 5 5 7 7 1 5 3 1 3 8 9 7 8 7 7 6 6 7 7
8 7 6 6 5 5 5 4 4 4 5 5 6 6 7 8 9 9 9 8 8 7 6 5 4 3 3 3 3 4 4 5 6 7 9 10 8 9 12 13 12 12 12 11 11 10 9 8 4 1 2 1 3 4 3 2 2 1 2 2 2 3 2 1 2 1 2 0 4 7 4 4 4 1 4 2 2 2 6 8 8 8 8 7 6 6 7 7
8 8 6 6 5 4 5 4 4 5 5 6 6 7 7 7 9 10 9 9 8 5 4 3 3 2 1 2 3 3 3 4 6 6 8 8 8 13 13 9 8 8 9 8 7 5 7 6 1 1 2 1 1 3 3 3 3 2 1 2 1 2 2 1 2 2 1 2 5 7 7 10 8 3 3 4 4 2 7 9 10 8 6 7 6 6 7 7
9 8 6 5 4 4 4 4 4 4 5 7 7 7 8 9 9 9 9 10 8 6 3 2 2 2 2 3 3 2 4 4 6 6 7 9 11 12 9 6 5 5 5 4 4 4 3 2 1 1 2 1 2 5 5 2 2 3 3 3 1 2 4 3 1 1 1 3 6 7 9 14 15 11 12 7 5 5 10 11 11 10 9 8 7 8 9 7
10 9 7 5 4 3 2 4 3 4 5 7 9 11 11 10 8 7 6 5 5 3 2 3 3 2 1 3 2 4 6 6 7 5 6 10 10 10 9 8 5 4 3 2 2 3 1 1 1 3 4 5 6 6 3 2 2 3 3 2 1 3 4 3 1 1 1 4 7 10 12 14 15 12 14 10 5 6 11 11 10 10 9 9 9 9 9 9
10 9 8 7 4 1 2 3 2 4 5 8 12 11 8 6 4 3 1 2 1 1 1 2 2 2 2 3 4 7 8 6 4 3 7 9 9 10 8 5 3 3 1 1 2 2 1 2 4 4 3 5 6 3 4 5 4 4 3 1 1 3 3 2 1 2 1 5 7 7 11 15 14 12 14 12 6 8 12 13 12 11 10 10 10 11 10 11
11 11 10 9 6 2 3 4 2 3 5 9 12 6 2 3 2 3 2 1 0 2 3 2 2 2 3 4 7 8 5 4 2 2 8 7 6 7 2 1 4 3 0 1 2 1 2 4 5 2 2 2 4 6 6 5 3 3 2 2 2 4 4 1 2 1 1 3 5 3 9 16 15 13 13 11 10 12 13 14 14 13 12 11 11 13 12 10
12 12 12 11 9 4 2 4 3 2 5 8 9 3 1 3 4 4 3 2 1 1 2 2 2 2 3 3 7 6 1 3 3 1 5 5 2 3 2 2 4 3 2 2 2 2 3 6 3 4 6 6 6 5 5 3 2 2 1 2 3 3 3 1 2 2 1 3 5 3 7 14 16 15 15 14 14 15 14 14 14 13 13 13 12 12 11 10
13 13 13 12 11 7 3 2 2 1 4 7 7 3 2 5 6 5 2 1 2 1 0 1 2 3 3 1 6 6 2 2 4 4 6 6 2 1 4 5 4 4 4 6 6 4 4 3 2 6 7 7 6 3 4 3 2 3 2 3 3 0 1 2 1 2 2 3 5 6 7 12 15 14 15 15 13 12 12 12 12 12 14 16 14 11 10 12
14 13 13 13 12 9 5 3 1 1 3 7 7 5 4 7 7 4 2 1 1 0 1 2 1 3 4 3 8 8 2 1 3 4 9 9 4 2 4 4 4 5 6 7 6 5 2 1 3 6 5 6 6 5 6 5 3 3 4 5 4 2 2 2 2 1 3 2 2 7 8 8 9 9 11 8 4 6 8 8 10 12 13 13 13 12 12 13
16 15 14 13 13 11 7 4 3 3 3 4 7 7 6 7 5 3 2 1 2 0 0 2 2 4 5 5 9 7 1 1 1 1 9 8 4 4 3 2 2 5 6 5 3 5 2 3 5 7 3 4 6 5 7 6 4 3 5 9 9 4 1 1 2 2 3 2 1 3 6 4 2 5 10 5 3 7 5 6 11 12 11 10 11 12 11 12
16 16 15 15 15 13 8 4 4 4 3 3 7 10 8 7 5 3 2 1 2 2 2 3 3 5 7 5 6 5 2 3 1 3 7 5 2 3 3 2 1 2 6 6 2 3 1 3 3 6 6 5 5 4 5 6 4 2 2 5 7 2 1 1 1 2 4 2 1 1 5 6 4 9 14 9 10 13 7 8 13 12 10 10 10 10 9 9
13 16 17 17 17 16 8 3 5 5 2 3 9 13 10 8 6 2 1 1 4 3 4 1 1 5 7 3 4 5 3 2 4 4 3 2 2 1 2 5 2 1 4 4 2 2 4 5 3 4 6 6 5 4 5 8 5 1 1 1 4 4 4 3 2 3 3 3 2 3 3 6 7 9 10 8 10 14 12 12 13 10 10 11 10 10 9 9
8 12 18 19 19 18 8 3 7 5 1 3 10 14 11 7 4 1 2 3 2 3 4 1 1 3 4 2 2 2 0 1 4 2 3 3 1 1 2 7 6 5 5 4 5 1 3 6 8 8 6 5 5 0 5 11 5 1 1 1 3 3 3 3 2 2 1 4 4 4 4 5 8 5 2 1 6 10 13 14 11 8 7 7 8 8 7 6
5 7 14 19 20 19 11 5 5 4 1 4 10 15 10 5 3 1 1 3 1 3 2 2 4 3 3 4 2 3 2 2 1 1 1 2 2 2 2 4 4 6 3 2 3 1 1 2 4 7 6 5 3 4 1 8 3 3 5 5 6 5 4 3 0 1 1 5 5 6 8 5 9 5 6 3 4 8 11 10 6 5 4 4 4 4 4 3
8 8 11 18 21 19 13 8 7 5 2 4 10 13 9 3 2 3 3 3 1 2 2 2 2 2 7 9 2 1 2 2 1 2 1 1 3 3 0 1 3 4 2 2 1 1 1 1 1 2 2 2 5 6 3 0 4 7 7 5 7 5 3 2 1 1 1 6 3 8 10 5 8 5 7 5 2 4 7 7 4 3 2 2 1 1 2 1
11 9 11 20 24 20 13 8 10 9 4 5 12 12 6 1 1 5 6 1 1 2 3 2 1 4 11 10 4 2 2 2 2 5 4 3 2 3 2 3 3 3 1 3 2 1 1 1 1 1 1 3 6 6 5 3 3 4 4 4 4 2 1 2 1 1 4 6 1 3 4 5 8 6 4 2 2 3 5 7 8 5 3 1 1 0 2 1
10 9 10 20 25 22 14 8 11 12 7 11 14 8 3 1 1 6 5 2 1 3 5 2 1 6 9 5 3 5 4 2 3 5 5 5 5 6 6 6 6 4 4 7 4 1 2 3 2 2 0 3 6 7 5 2 1 2 3 6 5 3 2 3 3 3 5 4 2 3 1 4 11 11 6 9 12 12 9 9 11 9 7 5 2 2 2 2
9 9 8 16 24 23 17 10 12 14 12 15 12 5 3 5 5 9 8 3 1 1 3 3 2 5 8 6 4 4 2 1 5 4 2 3 5 7 5 4 4 2 3 5 5 3 3 1 3 5 2 4 8 7 5 4 5 6 7 7 6 5 4 5 3 1 4 2 2 2 1 4 10 10 9 14 16 13 8 9 10 9 10 8 3 3 4 4
7 9 8 11 19 22 18 12 12 16 16 16 9 4 5 8 8 10 10 4 1 2 2 3 5 5 5 3 2 4 2 1 5 4 2 4 4 6 6 5 5 2 1 3 4 6 7 4 6 9 4 6 11 7 4 6 7 7 4 3 5 6 5 5 3 2 3 1 2 1 2 6 6 2 3 8 10 8 6 6 6 7 10 8 5 7 8 8
5 10 10 8 12 18 19 14 14 19 18 14 6 4 8 10 7 7 8 4 2 1 2 2 6 6 3 0 1 2 2 1 4 3 3 6 5 7 7 8 10 6 3 4 3 4 6 5 3 3 1 9 11 3 3 6 5 3 1 1 5 4 2 1 1 1 1 1 2 3 4 6 5 6 8 8 9 6 4 4 5 8 9 5 7 9 7 7
4 7 10 9 7 13 18 17 17 22 18 10 4 5 7 5 2 3 4 4 4 6 7 3 4 5 4 2 1 3 1 1 4 4 3 4 3 5 6 6 10 12 9 7 3 3 3 3 2 2 1 5 4 0 2 2 3 4 3 5 3 1 2 2 1 2 2 4 4 4 6 7 6 10 10 11 13 9 4 5 6 8 6 4 8 7 3 4
4 4 7 9 9 10 15 18 22 23 14 6 5 6 4 2 1 2 0 2 2 6 9 6 3 5 6 5 4 6 3 2 4 5 4 3 3 6 7 4 5 14 13 6 1 2 3 2 1 1 2 1 2 1 2 3 1 4 5 5 2 2 1 2 4 1 3 6 4 4 8 8 6 6 3 3 9 10 9 10 9 8 6 6 9 5 2 4
3 3 4 10 14 12 13 19 23 16 6 3 5 5 4 4 4 3 2 2 1 2 5 6 4 4 6 6 5 6 6 5 6 6 5 4 4 7 10 5 5 14 14 4 0 1 2 3 1 1 1 1 2 2 3 1 2 1 1 2 2 2 4 4 4 4 5 6 3 4 7 6 8 8 4 4 8 9 11 11 10 11 10 9 9 5 4 5
4 3 3 10 17 14 16 23 20 9 2 4 6 5 5 5 3 3 4 3 2 2 4 5 3 2 4 5 4 5 7 7 8 7 5 5 5 5 10 8 5 10 13 9 4 1 2 5 3 1 2 1 2 5 7 5 2 2 1 1 0 3 3 3 3 2 5 6 4 4 4 5 8 7 6 11 12 11 10 9 8 10 10 9 8 5 4 5
3 2 2 8 17 17 20 21 13 5 4 5 6 4 4 4 4 3 4 3 1 2 3 4 5 4 3 3 2 3 5 5 7 7 4 6 6 3 7 8 4 3 9 12 7 2 3 4 3 1 1 2 5 6 8 9 8 5 6 6 4 2 0 2 2 1 2 4 4 4 5 8 6 4 7 11 11 10 11 8 7 7 8 7 6 4 3 4
2 2 1 7 18 23 21 14 5 4 5 5 7 5 3 3 4 5 4 1 0 0 1 3 5 4 4 4 3 3 4 4 6 5 4 6 8 5 4 6 6 6 6 9 8 6 4 4 4 3 3 6 5 1 2 5 7 7 8 9 10 8 5 4 5 2 1 3 2 2 6 9 5 3 6 9 7 7 8 7 7 7 7 4 2 3 4 4
2 3 0 6 21 27 18 7 3 4 4 6 6 4 3 3 4 6 6 3 1 0 0 1 2 3 3 3 2 3 4 4 5 5 5 6 9 6 1 1 5 9 7 5 5 4 3 2 5 4 4 4 1 3 1 3 2 3 4 5 6 6 7 8 6 3 2 2 1 0 5 10 5 3 3 5 4 3 3 5 7 7 5 3 1 3 5 5
3 3 1 7 25 26 12 6 6 5 6 7 3 1 4 4 3 5 7 6 4 3 2 1 1 3 3 2 2 3 3 3 4 6 5 5 7 5 2 3 6 8 5 3 2 3 3 1 4 4 2 1 2 2 1 1 1 4 4 2 2 5 7 4 1 1 3 4 3 3 6 10 5 2 2 3 2 3 3 5 7 6 5 5 4 3 4 5
3 2 2 6 23 23 11 6 8 8 9 8 4 4 5 4 4 6 7 8 5 4 4 3 3 5 4 2 3 3 4 2 3 5 5 4 3 1 3 7 8 7 5 2 3 5 4 3 4 5 4 3 3 3 3 2 3 4 4 4 6 8 5 2 1 2 3 6 9 8 8 10 4 3 1 3 3 6 7 5 6 6 6 6 4 3 4 5
2 2 2 3 10 11 5 3 4 9 12 11 9 10 10 5 5 8 9 8 5 4 5 4 5 6 4 3 4 4 6 6 5 4 4 4 2 1 2 7 9 8 6 1 3 5 4 3 5 6 7 8 7 6 4 4 5 3 4 7 10 11 10 5 3 5 6 9 11 9 9 13 9 2 3 5 4 6 8 6 5 7 8 6 4 3 4 4
2 2 2 2 1 1 0 1 1 5 11 12 9 10 13 10 4 5 9 9 7 7 6 4 4 6 6 7 7 7 9 10 7 4 4 5 3 0 2 6 8 9 5 6 6 5 1 1 5 8 9 10 10 5 0 4 6 7 9 9 10 13 14 10 5 7 10 10 11 11 13 18 19 11 7 6 5 6 8 6 5 6 7 7 5 4 4 3
3 3 3 3 1 2 2 2 3 5 7 10 7 7 13 15 8 5 7 8 9 10 8 5 6 8 9 10 10 10 11 11 9 8 8 7 4 0 1 3 6 6 4 6 5 4 3 4 8 10 11 13 13 7 2 5 7 10 12 12 12 12 13 12 11 13 13 10 12 14 14 17 22 20 15 10 6 6 7 6 5 5 5 5 3 2 4 5
4 2 2 2 1 4 5 6 8 9 7 6 6 6 12 16 13 9 7 6 8 10 9 7 10 13 14 13 10 9 10 10 10 11 10 8 6 3 0 1 3 4 6 3 1 3 4 6 8 8 11 16 17 11 4 5 6 6 10 12 13 13 14 15 17 20 17 13 13 14 14 17 20 22 20 14 8 7 7 6 4 4 4 5 3 3 6 7
3 1 1 1 1 2 2 4 9 11 9 6 4 6 10 14 16 12 7 5 7 10 11 11 13 15 16 15 12 10 11 10 9 10 9 9 8 5 4 3 1 1 5 3 1 1 3 4 8 9 10 15 18 16 11 10 9 9 10 10 9 13 16 18 20 22 20 17 15 16 19 21 21 22 19 12 6 7 7 4 3 3 5 6 6 7 8 8
4 2 2 1 0 1 1 2 7 9 9 8 6 5 7 11 14 12 8 8 9 9 12 16 16 14 15 15 14 14 14 12 11 11 10 9 8 6 5 5 2 1 2 4 3 2 3 5 8 8 7 12 17 18 17 14 13 15 14 9 9 13 17 20 21 17 15 17 19 21 22 21 20 19 16 10 4 4 6 7 7 7 7 7 8 9 9 8
6 4 4 2 2 4 1 1 5 6 6 8 7 7 8 10 13 9 4 5 9 9 11 16 16 12 12 15 16 17 16 14 14 14 12 11 10 8 6 5 6 4 4 5 4 3 5 5 4 6 6 10 13 16 18 15 11 12 14 14 16 18 17 16 15 14 15 17 19 18 16 16 18 13 10 10 7 6 10 11 9 10 10 10 11 10 9 9
8 4 4 2 2 4 3 1 4 5 5 7 9 8 7 7 9 7 3 2 6 8 8 10 10 7 9 16 16 12 9 9 12 12 9 8 10 10 7 7 10 8 6 5 3 3 6 5 4 6 6 9 12 13 12 11 7 7 13 19 22 21 17 12 12 18 20 16 14 13 12 15 18 13 11 13 9 8 12 11 10 13 16 15 13 12 12 12
Wind_Direction
161 158 154 151 150 147 149 168 173 171 179 184 190 190 194 199 199 199 191 190 190 190 193 186 185 177 174 173 109 97 105 130 134 124 125 121 111 120 116 101 100 108 111 122 164 171 146 92 106 129 118 72 11 342 96 31 15 240 195 201 212 182 183 178 183 184 69 172 168 169 190 200 178 163 168 173 208 214 200 215 211 209 222 187 105 126 155 161
162 162 154 148 150 149 149 172 180 176 181 187 194 194 196 197 195 195 189 193 194 195 195 190 189 176 193 181 124 109 122 135 126 96 92 136 129 124 116 99 90 97 114 129 165 180 174 130 122 136 121 88 356 349 178 351 340 225 142 218 220 170 150 175 183 170 289 300 157 159 190 211 194 157 161 208 199 180 226 220 202 228 215 178 155 156 156 165
166 161 157 152 152 157 157 178 188 181 184 190 195 196 198 195 190 189 189 192 192 196 197 198 196 183 202 171 130 128 137 139 124 79 82 136 135 125 114 95 87 96 115 137 151 163 164 148 142 142 106 87 33 356 164 11 329 138 194 229 209 133 128 158 189 164 312 317 161 155 164 216 195 143 162 216 216 190 230 227 200 226 220 185 162 158 160 170
172 163 160 157 157 164 165 183 193 185 185 189 193 196 196 191 187 185 185 188 191 194 196 203 199 192 203 167 136 119 135 148 141 103 115 131 134 123 106 91 87 84 95 137 136 130 135 132 127 111 106 113 58 326 122 21 306 138 234 252 65 90 149 128 196 155 17 315 187 144 146 199 162 152 193 206 224 224 234 232 226 237 220 170 159 162 168 174
179 173 169 170 166 169 173 183 186 183 182 185 192 190 190 190 186 184 184 185 187 188 192 200 198 196 195 152 144 125 148 173 146 139 136 135 132 115 98 88 81 69 80 132 126 127 131 119 111 87 79 120 117 158 101 18 328 127 38 341 53 270 83 85 276 36 344 308 168 150 164 177 128 188 217 210 229 236 235 225 232 249 129 143 164 166 170 179
185 185 180 177 168 169 177 178 170 172 176 183 187 180 188 190 184 183 182 182 183 184 185 188 187 184 174 121 122 147 209 207 134 156 148 139 131 111 94 82 74 64 61 121 132 137 131 121 137 122 91 99 92 109 95 19 301 189 122 93 106 9 36 65 9 75 221 230 178 170 163 136 159 213 213 223 236 236 65 59 36 33 70 132 164 166 175 184
190 190 187 182 170 166 170 175 171 170 173 188 186 179 185 184 182 181 176 178 178 178 176 177 177 171 164 137 103 92 93 39 132 164 151 143 135 113 89 71 64 63 62 108 128 132 129 148 140 132 110 105 119 102 88 125 261 246 129 140 148 55 8 31 14 148 219 247 197 62 162 162 201 221 75 234 241 233 104 88 43 51 106 157 170 177 189 192
196 196 193 187 178 175 173 173 172 168 164 177 178 170 174 174 177 175 173 174 171 172 170 168 166 161 166 160 126 98 91 64 168 162 149 144 136 115 85 66 61 73 81 82 87 144 154 138 137 177 122 96 158 124 124 175 132 90 127 144 146 98 30 65 125 159 202 260 352 207 201 184 226 262 304 247 244 236 172 144 159 142 151 183 194 194 197 199
197 199 197 186 173 169 169 152 146 149 141 144 148 144 152 159 166 170 172 170 167 169 164 163 160 160 169 153 129 158 124 49 170 158 146 145 133 108 82 69 74 96 87 72 68 144 182 164 151 202 130 99 160 127 243 221 109 65 110 132 129 101 73 108 154 138 201 225 163 215 199 126 352 324 267 250 251 314 198 210 196 200 208 206 202 204 203 206
191 195 192 184 167 151 138 123 114 114 121 125 116 122 134 142 152 161 166 166 166 165 163 165 157 160 170 157 158 174 130 98 161 157 146 144 131 105 85 77 87 107 91 71 65 70 148 171 150 175 118 105 152 112 314 288 84 73 97 105 89 81 80 115 170 116 219 172 187 236 212 121 128 256 252 241 28 15 246 219 199 217 231 222 210 212 212 215
180 190 188 184 176 152 127 113 107 105 110 109 95 106 129 139 146 149 155 160 161 161 160 160 161 161 160 169 191 163 119 126 152 153 145 139 130 112 92 92 103 112 103 78 65 66 93 130 135 155 120 130 143 94 39 44 87 66 116 124 76 67 93 43 208 80 309 162 177 269 257 236 122 230 244 100 50 3 247 231 220 232 239 230 220 221 220 225
179 188 193 192 183 165 150 132 123 122 120 117 106 103 125 143 148 146 148 152 156 159 155 155 164 162 141 146 149 127 131 134 142 144 145 141 133 117 97 100 106 103 112 96 76 94 114 127 128 96 57 170 154 103 106 106 65 80 121 151 88 116 144 54 19 1 311 178 80 297 262 239 200 227 236 88 51 25 323 255 239 239 244 239 229 228 228 227
180 186 198 200 188 182 180 160 149 149 143 134 123 117 132 146 147 147 147 149 154 154 155 157 158 165 169 141 100 126 136 132 135 136 140 142 129 114 103 103 101 95 105 109 105 113 124 127 107 93 70 143 120 118 133 104 301 125 64 339 113 211 192 83 48 339 265 174 12 266 261 239 209 227 219 76 20 323 277 257 247 244 244 246 237 237 237 224
175 182 196 204 197 187 177 153 148 155 154 147 140 136 137 143 146 148 148 149 153 153 158 161 157 166 182 123 121 141 140 137 142 139 140 139 124 111 107 105 101 98 95 96 99 103 110 107 103 106 65 25 105 153 131 89 358 109 98 287 165 234 171 92 69 285 221 165 25 240 255 262 230 221 110 63 353 250 263 257 250 249 246 251 244 245 249 232
176 177 182 188 184 170 152 142 147 153 160 157 151 145 140 145 147 146 149 148 151 155 157 158 160 165 151 117 138 151 146 149 154 154 150 140 126 112 111 112 104 98 94 90 89 87 87 93 92 97 69 9 159 156 117 90 70 61 217 184 130 241 193 89 80 326 250 106 200 225 248 269 270 269 82 56 117 186 255 261 257 255 252 255 252 249 254 247
177 177 178 176 178 175 157 151 158 159 165 166 159 152 147 148 146 144 146 145 148 152 152 159 163 166 166 135 133 144 146 155 161 163 158 150 140 129 124 115 101 93 93 87 84 77 60 66 61 19 85 169 183 147 127 153 147 86 255 205 153 220 246 107 109 57 320 19 217 231 260 278 275 39 92 112 144 175 264 271 266 256 253 253 253 251 251 254
175 175 178 180 194 196 174 165 166 166 170 168 159 152 145 142 140 139 137 138 140 136 138 153 146 145 150 126 141 158 149 154 157 156 159 161 151 139 128 107 94 93 89 80 76 56 32 50 87 270 74 121 159 156 174 205 214 179 210 239 197 219 248 252 144 99 316 259 230 229 247 259 261 266 240 191 159 225 270 274 273 265 257 251 248 252 250 251
174 174 175 178 195 214 192 167 164 172 170 166 158 146 134 128 130 131 132 133 120 105 110 125 147 181 198 161 164 152 135 139 138 136 146 147 145 141 127 107 111 105 94 77 44 24 14 31 267 161 113 139 164 192 198 200 223 177 186 216 204 217 231 266 263 113 208 242 238 234 240 255 259 263 265 247 179 233 264 267 271 270 266 261 253 252 249 246
177 174 172 172 184 218 190 151 163 176 168 162 148 132 122 117 119 122 130 144 133 120 152 163 169 190 166 147 123 113 123 127 130 128 130 135 137 125 101 98 108 98 126 169 49 26 2 100 158 188 183 191 188 203 200 87 88 126 154 198 198 233 232 241 264 55 298 251 247 246 252 262 263 260 267 264 199 225 262 264 264 263 263 261 254 251 248 245
182 177 174 173 175 178 107 115 164 175 165 160 146 131 125 127 126 130 152 229 201 35 29 115 134 101 87 107 124 127 118 107 110 129 136 140 136 117 81 57 88 88 120 191 101 52 292 194 202 216 202 193 187 152 96 86 82 101 119 164 206 253 262 201 135 50 16 264 257 250 266 273 272 267 265 266 246 241 254 256 257 254 253 253 250 251 247 245
183 183 183 178 167 138 77 80 109 163 170 169 163 157 165 172 167 150 167 226 238 5 9 54 73 83 91 119 147 147 123 85 69 135 151 148 148 148 110 18 149 148 27 31 100 101 229 222 221 210 88 111 131 111 110 112 90 106 163 226 229 242 258 137 80 23 102 261 268 271 286 279 275 274 268 265 258 255 251 248 252 253 253 252 249 251 250 250
192 191 192 188 176 165 86 65 63 136 177 182 183 205 257 186 154 126 132 173 147 10 10 74 94 98 82 129 165 169 163 108 104 186 172 150 159 189 152 138 180 171 116 141 148 141 207 229 204 111 100 92 96 125 140 130 124 137 163 238 253 250 263 162 76 28 141 242 277 316 297 282 280 277 270 260 253 255 252 247 253 258 258 256 251 251 250 255
202 198 198 196 185 180 166 114 49 77 180 193 194 198 179 155 142 131 119 139 145 67 103 184 198 155 123 176 181 173 189 155 150 200 192 167 147 178 153 158 170 135 150 190 191 180 203 239 136 120 136 122 103 138 148 135 177 197 186 218 247 338 274 251 83 75 169 237 296 314 296 281 280 275 266 256 247 256 259 254 257 256 256 258 259 262 259 257
211 206 205 198 188 188 189 185 212 201 195 198 195 186 165 154 146 148 125 66 208 176 177 231 249 179 163 162 174 175 199 182 161 180 184 176 144 145 167 150 139 145 181 195 199 211 204 48 107 129 141 137 128 152 170 182 203 209 216 225 238 230 225 260 9 3 222 204 282 297 288 271 263 265 268 262 244 263 260 256 258 249 247 255 261 264 258 253
220 213 211 202 192 189 192 210 225 199 186 198 198 182 168 170 161 160 128 42 230 153 19 215 212 198 167 131 159 168 129 176 242 153 174 177 139 139 151 104 172 186 175 157 183 239 219 110 138 133 121 137 143 166 189 197 207 219 220 223 238 254 210 225 356 322 263 224 158 302 286 264 224 262 266 265 273 263 224 223 253 251 244 243 249 254 248 245
218 216 214 207 195 183 185 226 224 184 166 191 194 179 174 174 159 157 118 36 248 186 133 180 181 178 162 134 152 150 133 194 5 66 151 168 126 131 148 127 315 192 154 142 179 252 164 133 146 139 146 153 159 189 194 192 208 224 218 224 233 247 92 205 265 283 279 286 150 245 276 277 289 273 266 262 272 273 255 240 253 253 249 242 242 248 244 244
209 213 213 208 194 182 179 214 194 174 160 175 179 176 178 171 153 160 148 308 264 174 131 179 230 164 157 149 164 162 186 175 97 83 111 127 119 60 177 164 147 146 149 148 205 220 139 152 161 145 149 159 181 200 182 187 200 192 58 189 187 180 200 207 204 239 286 326 253 187 237 277 276 266 267 263 265 275 275 263 255 246 245 244 244 247 246 248
203 207 209 207 197 192 197 209 179 174 167 146 167 177 176 168 163 140 181 229 261 124 121 154 113 117 126 111 99 113 19 70 123 136 19 30 107 21 207 187 176 162 161 187 213 206 137 175 181 167 165 183 191 161 165 181 193 8 83 106 133 148 168 157 179 229 329 321 267 173 166 267 270 233 199 255 256 270 272 267 264 258 248 242 245 250 250 252
205 200 208 207 197 195 206 214 182 174 128 120 162 177 168 169 197 88 139 219 198 95 91 128 125 91 116 130 76 68 72 27 59 152 42 59 77 41 200 190 151 136 139 241 231 29 37 213 197 175 180 192 151 39 185 190 176 132 139 101 91 86 75 95 199 176 100 283 261 165 170 257 286 231 161 157 239 254 264 267 271 281 278 254 245 256 258 259
203 197 209 203 192 192 200 208 203 185 133 131 161 166 156 161 202 151 177 221 179 96 68 129 159 144 149 149 127 11 90 47 64 114 96 109 65 37 62 105 85 123 126 329 342 70 57 13 312 219 191 150 111 71 14 350 116 144 146 105 94 86 64 79 36 64 238 266 223 157 178 226 294 262 161 158 203 230 257 275 270 252 267 262 256 277 264 250
196 196 202 196 194 196 193 202 206 186 145 147 150 146 144 59 43 186 200 229 56 143 136 136 115 145 158 160 160 166 122 66 153 154 141 150 116 95 154 156 111 122 199 251 219 103 118 175 190 217 92 111 116 89 49 56 124 155 151 133 129 121 128 137 106 141 233 252 117 115 185 214 255 251 135 105 314 268 257 277 276 265 253 224 119 241 245 220
191 197 198 195 200 203 199 207 200 181 157 146 138 123 135 124 277 222 207 100 136 189 155 142 174 167 167 162 147 155 142 110 170 175 156 160 173 174 189 190 165 171 227 220 198 119 200 204 138 95 196 184 147 107 75 77 217 222 159 163 188 199 197 221 204 178 232 240 57 6 290 222 245 259 290 294 280 262 242 243 259 270 272 257 190 191 219 211
192 198 198 197 201 204 208 214 193 183 168 145 129 68 98 170 218 218 201 164 172 201 104 104 130 165 164 161 162 153 124 136 169 180 158 157 189 198 216 225 183 205 236 191 179 177 205 230 140 156 191 216 189 160 150 175 197 198 178 176 195 192 208 228 198 200 265 238 49 337 230 242 264 275 280 270 269 272 259 245 249 257 266 263 229 218 240 240
199 201 203 203 205 208 212 207 188 184 162 134 118 74 134 191 217 204 200 195 52 27 53 101 119 137 163 166 171 164 153 176 164 159 153 161 191 209 217 230 215 228 47 163 185 192 216 246 179 173 156 176 197 201 162 149 172 197 188 179 205 197 210 228 200 218 251 118 78 323 215 228 246 314 295 259 274 292 282 269 270 264 263 269 269 250 243 248
200 203 209 210 207 210 212 204 190 181 157 126 116 147 171 200 208 198 198 169 107 94 54 83 126 139 182 282 359 208 204 206 158 149 170 176 195 204 199 203 200 188 159 195 201 173 225 264 163 147 124 168 186 213 92 121 160 194 77 189 231 221 193 238 313 156 79 52 185 204 244 240 248 304 290 266 277 282 258 266 272 264 263 271 273 256 228 239
184 196 208 213 210 207 207 204 187 172 154 123 127 178 198 213 185 197 195 134 141 143 125 121 133 149 186 186 196 222 263 69 154 170 199 206 239 219 205 208 194 188 187 191 185 148 212 274 69 45 311 174 182 270 113 158 183 160 172 201 225 327 105 156 233 84 87 266 236 189 244 264 282 288 266 246 256 260 261 267 254 258 266 258 262 257 201 227
178 183 202 215 218 202 199 200 183 168 154 132 158 184 207 245 237 229 185 93 142 146 144 164 184 173 182 182 188 193 185 133 164 194 190 179 245 217 207 241 190 193 204 199 205 216 211 260 58 83 206 164 1 355 92 359 13 142 188 193 139 22 15 199 235 181 183 247 248 192 235 255 264 273 269 232 251 254 259 263 258 260 259 246 255 254 191 220
165 177 217 224 214 199 193 191 179 165 149 156 185 194 188 197 210 195 142 130 149 149 170 190 191 176 185 191 181 169 180 177 168 191 184 171 228 198 183 207 195 198 209 204 356 245 203 238 267 53 248 77 43 220 175 55 24 66 236 179 119 224 210 185 215 223 216 233 242 220 238 249 238 244 264 254 244 244 250 252 252 256 252 249 257 250 208 211
147 160 249 224 205 199 191 180 168 153 144 186 202 211 193 191 192 170 175 179 150 139 183 206 204 181 183 186 155 146 186 187 162 178 193 183 213 188 174 195 203 196 196 184 189 159 163 230 231 60 316 22 112 214 202 169 112 30 295 181 324 260 223 189 190 214 229 227 237 250 256 250 232 220 231 243 241 235 236 238 240 247 249 252 257 248 222 217
172 171 272 206 194 190 181 171 158 145 174 198 215 200 165 179 185 186 197 185 141 159 190 201 199 195 178 167 149 157 193 196 171 186 206 186 203 211 182 190 172 154 181 184 197 172 143 225 230 95 318 222 186 207 205 182 166 176 196 190 193 203 274 273 229 157 246 236 233 251 264 263 250 178 192 228 238 228 224 231 237 243 248 254 270 276 257 234
188 202 272 188 183 177 168 165 165 171 184 221 228 205 160 162 170 177 188 186 229 309 147 175 186 191 171 164 191 176 171 189 185 196 218 203 211 217 193 195 165 127 146 177 200 202 174 205 211 164 183 206 200 206 234 208 185 188 195 195 199 187 164 218 221 171 247 258 230 231 265 268 258 156 194 220 228 226 221 223 231 242 248 250 293 275 254 248
182 187 235 181 180 172 163 173 192 177 208 224 217 198 153 140 153 168 177 194 217 172 73 144 169 182 164 161 188 159 152 179 185 198 226 222 220 217 233 242 158 143 141 161 197 193 141 179 215 203 200 206 168 50 356 291 278 244 232 210 210 197 187 212 220 179 170 221 260 323 268 267 255 142 199 223 228 247 238 228 234 247 267 282 278 236 239 250
195 200 347 182 181 173 166 197 194 190 226 221 197 125 150 159 159 162 176 193 194 175 182 176 161 209 206 154 137 147 158 181 191 204 227 245 237 222 136 117 145 155 160 154 172 155 111 167 223 231 235 148 63 72 95 17 339 248 247 202 204 222 215 224 246 189 186 184 197 219 241 260 264 140 221 269 297 287 267 240 242 253 271 268 251 230 238 246
199 209 343 199 187 179 178 201 195 203 220 216 202 197 202 199 167 160 177 191 188 168 179 197 200 214 223 146 138 170 169 173 230 227 226 247 252 168 128 154 164 179 196 192 174 163 161 191 209 227 240 219 202 202 199 175 183 232 235 190 209 218 196 105 63 233 232 203 207 225 240 253 256 107 211 260 255 261 256 234 236 254 258 248 239 228 233 239
177 190 317 250 199 185 193 212 193 207 215 214 209 209 218 220 180 183 190 185 177 170 182 201 193 188 195 168 169 189 184 188 220 233 229 242 255 48 170 182 182 199 212 156 114 147 171 192 182 202 226 226 221 218 212 178 162 214 234 199 207 203 179 172 202 214 229 221 215 225 244 256 255 163 177 227 226 254 259 235 223 245 255 251 240 229 225 225
171 183 204 236 242 163 241 334 182 212 214 211 211 214 218 221 207 194 200 194 191 195 202 206 171 173 187 185 189 204 205 204 209 209 224 232 224 168 199 192 200 214 192 134 135 141 128 235 204 213 225 230 240 253 155 126 151 195 216 201 199 200 192 195 214 216 224 234 236 229 232 254 262 250 219 214 212 236 251 242 228 240 252 249 239 239 254 253
201 196 185 184 196 190 194 214 208 213 213 204 200 206 215 220 220 197 203 209 198 198 214 215 178 182 190 190 202 215 210 207 210 217 227 231 230 286 119 173 222 229 160 140 156 132 113 226 224 232 244 252 267 283 116 149 191 204 211 205 195 196 195 198 217 225 221 229 244 236 227 245 261 262 250 234 218 226 244 252 251 252 260 263 249 232 254 261
207 204 208 208 211 199 203 203 198 203 209 195 193 215 218 218 219 206 200 211 201 196 210 214 201 203 200 191 199 215 208 204 213 221 229 235 238 246 123 158 229 194 144 143 230 124 144 225 224 226 246 255 268 275 215 203 234 218 213 213 199 191 193 201 219 227 224 225 243 252 247 246 255 261 258 248 232 228 232 237 251 275 289 289 278 243 238 239
191 218 258 263 270 214 214 178 176 194 204 184 186 225 219 215 218 212 190 193 207 201 206 218 214 209 209 206 206 214 210 203 212 218 219 226 224 217 225 238 263 141 135 132 258 139 138 231 227 222 242 250 257 261 245 233 249 249 236 226 207 197 197 204 219 225 226 232 243 256 258 254 254 258 261 261 245 230 231 225 227 259 268 268 263 252 244 236
188 190 175 117 175 203 357 143 159 183 202 195 199 216 212 214 218 212 193 195 207 202 204 220 221 209 210 216 218 223 218 209 217 220 212 220 221 208 219 218 165 49 152 153 183 204 179 213 215 208 236 250 250 253 249 240 243 250 252 241 224 219 214 217 225 228 231 237 240 245 253 258 258 256 261 271 256 214 225 223 222 232 235 239 246 245 245 248
188 190 175 143 195 189 176 153 156 170 192 196 203 203 204 216 214 205 199 208 216 213 206 219 228 220 214 219 223 229 227 220 227 229 216 216 218 204 207 208 186 182 187 177 177 185 191 203 189 180 220 245 241 241 246 245 238 246 255 246 233 231 229 227 228 228 231 235 238 242 246 255 260 256 257 260 239 210 224 222 220 233 234 234 241 241 240 243
180 184 178 167 221 190 177 158 163 181 194 195 205 203 197 209 206 195 205 223 222 230 221 222 237 241 225 226 226 233 251 258 257 255 242 235 239 229 214 210 206 191 170 178 182 167 187 197 184 186 212 244 240 234 238 242 233 228 238 236 231 231 233 234 232 231 231 230 236 241 237 247 259 262 257 253 235 216 229 223 217 232 237 236 236 236 238 240
Height
806 807 807 807 807 809 809 810 810 811 811 811 812 812 812 813 813 814 815 815 816 816 816 816 816 816 816 816 816 816 816 816 816 817 817 818 818 819 819 818 819 818 818 818 818 818 818 819 818 819 818 820 824 825 828 829 829 829 832 839 841 844 844 840 841 841 839 837 839 844 844 842 844 847 847 847 847 846 847 847 846 846 847 847 848 849 850 850
806 806 807 807 807 808 809 809 810 810 811 811 811 811 812 813 813 814 814 815 815 815 816 816 816 816 816 816 816 815 815 816 816 816 817 818 818 818 818 818 818 818 818 818 818 818 818 819 818 818 819 823 827 827 828 830 830 832 836 839 838 837 838 836 835 836 839 837 837 842 844 842 842 843 846 846 844 846 847 844 845 845 844 846 848 849 850 851
805 806 806 806 806 807 808 808 808 809 810 810 811 811 812 812 813 813 814 814 814 815 815 815 816 815 816 815 815 815 815 815 816 817 818 818 818 818 818 818 818 818 818 818 818 818 817 818 818 819 821 825 829 828 828 831 832 835 838 836 835 835 836 838 837 837 841 840 838 841 845 845 842 842 844 844 843 845 844 840 842 843 840 842 846 848 850 851
806 806 806 805 805 806 806 807 807 808 809 809 810 810 811 812 812 813 813 814 814 814 814 815 815 815 815 814 815 815 814 816 818 818 817 817 818 818 818 818 818 818 818 818 818 817 817 818 818 819 822 827 831 829 830 833 834 836 837 834 836 838 837 839 840 840 844 844 840 841 846 845 843 844 843 842 844 843 838 834 835 836 835 838 843 846 848 850
806 805 805 805 805 805 806 806 807 807 808 809 810 810 811 811 812 812 812 813 813 814 814 814 814 814 814 814 814 813 814 820 820 817 817 818 818 818 818 819 819 819 818 818 818 818 818 818 818 820 823 828 830 830 832 836 835 835 839 839 841 841 838 841 844 845 847 846 842 843 844 843 843 844 842 842 842 836 832 830 831 832 833 836 840 844 846 848
806 805 805 804 804 805 805 806 807 808 808 809 809 810 810 811 811 811 812 812 813 813 813 814 814 814 814 813 814 812 815 822 819 816 818 818 818 819 819 819 819 819 818 818 818 818 818 818 819 823 826 830 832 832 834 838 836 835 839 843 843 843 840 843 846 847 849 845 842 843 841 842 844 842 842 842 837 830 830 831 832 833 835 836 838 841 843 844
805 805 805 804 804 805 805 806 807 807 808 809 809 809 810 810 810 811 811 812 812 812 813 813 813 814 813 813 813 812 816 819 817 817 818 818 819 819 819 820 819 819 818 818 818 817 819 819 821 826 828 832 834 834 836 838 836 834 837 842 844 846 844 846 849 849 850 845 843 844 842 843 843 841 845 842 831 828 831 832 834 835 837 838 838 839 840 840
805 805 804 804 804 805 805 805 806 807 808 808 808 809 809 809 810 810 811 811 812 812 812 813 813 813 813 813 813 815 817 818 817 817 818 818 819 819 819 819 819 819 818 818 818 817 819 821 823 826 828 833 833 834 838 836 834 834 837 841 844 846 845 848 850 849 850 847 847 846 843 844 844 845 846 837 828 828 831 832 834 835 836 837 837 837 838 838
804 804 804 804 804 805 805 805 806 807 807 808 808 808 808 809 809 809 810 810 811 811 812 812 813 813 813 813 813 817 819 817 817 818 818 819 819 819 819 819 819 819 818 818 818 817 819 822 824 824 827 833 832 835 838 835 835 836 838 841 842 845 846 848 848 848 849 846 847 845 842 845 846 848 840 828 827 830 831 832 834 835 835 835 835 835 835 836
803 804 804 804 804 805 805 805 806 806 807 807 807 808 808 808 808 809 809 810 810 811 811 812 812 812 813 812 814 818 818 816 817 818 818 819 819 819 819 819 819 818 818 818 818 818 819 820 822 821 824 831 833 837 838 835 837 839 841 841 842 845 847 848 846 847 848 846 847 843 842 844 846 848 835 824 830 832 831 832 832 834 833 832 833 833 834 834
803 803 804 804 804 805 805 805 806 806 807 807 807 807 807 808 808 808 809 809 810 811 811 812 812 812 812 812 814 818 817 816 818 818 818 819 819 819 819 819 819 818 818 818 819 819 818 819 821 821 824 829 833 837 839 839 840 841 842 840 842 844 845 846 844 846 846 845 847 843 843 845 847 846 831 826 833 833 832 830 831 832 830 830 831 832 833 832
803 803 804 804 804 805 805 805 806 806 807 807 807 807 807 808 808 808 809 809 810 811 811 812 812 812 812 812 814 817 817 817 818 818 819 819 819 819 819 819 819 819 818 819 820 819 820 820 820 823 827 829 833 837 839 841 843 842 842 840 842 842 843 846 846 848 847 845 847 846 845 842 842 837 825 828 833 832 833 830 829 830 828 829 830 830 830 830
803 804 804 804 805 805 805 805 805 806 806 806 807 807 807 807 808 808 809 809 810 811 811 811 812 812 812 814 816 817 817 818 818 818 819 819 819 819 819 819 819 819 819 819 820 820 821 821 820 824 828 829 835 839 838 842 843 842 843 842 843 843 843 846 849 850 848 847 848 848 846 834 828 826 823 830 833 831 831 827 826 827 826 827 827 828 827 828
803 804 804 805 805 805 805 805 805 806 806 806 806 806 807 807 808 808 809 810 810 811 811 811 812 811 812 816 818 817 817 818 818 819 819 819 819 819 820 820 819 820 819 819 821 821 821 822 821 824 830 832 836 838 838 841 842 843 845 846 849 848 844 845 851 850 846 848 847 848 848 832 821 822 825 832 833 832 829 824 824 824 825 825 825 826 824 824
803 804 804 805 805 805 805 805 805 806 806 806 806 807 807 807 808 808 809 810 810 811 811 811 811 811 813 817 818 818 818 818 818 819 819 819 819 819 820 820 820 820 820 821 821 822 823 822 823 828 835 836 835 837 839 841 843 847 848 849 855 852 844 844 851 852 848 848 847 847 846 832 821 821 827 833 833 833 830 823 823 822 823 823 822 823 821 820
803 804 805 805 805 805 805 806 806 806 806 807 807 807 807 807 808 808 809 810 810 811 811 811 811 810 813 817 818 818 818 818 818 819 819 819 819 819 820 821 821 821 822 822 822 823 823 824 831 836 836 837 835 835 839 844 846 849 849 849 855 854 846 844 850 854 852 850 847 846 844 832 823 823 828 834 833 832 830 823 822 821 820 821 820 820 818 817
803 804 805 805 805 805 805 805 805 806 806 806 807 807 807 808 808 808 809 810 810 811 811 811 810 810 814 817 818 817 818 818 818 819 819 819 819 819 820 821 822 823 822 823 823 824 824 828 837 838 836 838 838 835 843 851 848 849 852 851 855 857 851 845 846 853 855 851 847 845 845 834 823 822 825 828 830 830 828 822 819 817 817 817 817 817 815 815
803 804 805 805 805 805 805 805 805 805 806 806 807 807 808 808 809 809 810 810 810 811 812 811 811 814 817 816 816 816 817 817 818 819 819 819 820 820 820 821 823 823 824 825 825 827 828 832 836 836 838 842 840 837 844 848 843 844 850 849 853 858 856 851 846 851 854 851 847 845 844 835 824 822 820 820 824 827 824 820 817 815 815 814 814 813 812 812
803 804 805 805 805 805 805 805 805 805 805 806 806 807 808 809 809 810 810 810 810 811 812 810 810 815 817 814 815 816 816 817 818 818 819 819 820 820 820 821 823 824 827 829 830 832 833 834 838 840 841 840 837 834 837 841 838 840 846 846 848 849 850 851 848 853 856 851 846 842 837 830 824 822 819 815 820 823 821 818 816 814 813 811 810 809 808 808
803 804 804 805 805 805 805 805 805 805 805 806 806 807 807 809 810 811 811 810 809 810 810 809 808 811 813 813 815 816 816 818 818 818 819 819 819 820 821 823 825 827 831 833 834 838 838 838 839 837 835 834 835 836 839 845 844 844 848 849 851 850 845 845 849 856 859 850 840 837 835 828 823 821 817 814 816 819 818 816 814 811 810 808 806 804 803 802
802 803 804 805 805 805 805 805 805 805 805 805 806 806 804 805 807 808 809 810 811 811 810 810 810 811 811 813 814 814 816 818 819 819 819 819 819 820 824 826 828 831 838 841 839 839 840 839 837 833 835 836 840 843 844 847 848 846 848 850 852 853 846 846 853 856 858 853 839 837 840 829 821 818 813 812 813 812 810 809 808 805 804 802 800 800 799 797
801 802 803 804 805 805 805 805 805 805 805 805 805 804 803 802 802 803 804 807 810 811 811 811 811 812 813 814 814 814 815 817 821 820 819 820 819 821 826 828 829 834 842 843 838 841 842 838 834 836 842 844 847 849 845 846 849 848 851 853 850 849 846 848 857 858 857 853 840 839 844 829 817 814 809 808 808 803 800 801 801 801 800 798 795 795 795 795
800 801 803 804 805 806 805 805 805 805 805 805 804 804 803 802 802 802 802 804 808 810 812 811 810 811 813 814 813 814 814 816 819 819 819 819 820 823 825 828 832 837 842 838 835 842 843 837 838 842 843 843 850 853 848 848 850 849 851 851 848 850 849 845 852 859 858 855 848 847 848 832 815 810 803 799 799 798 797 798 799 799 797 793 792 792 792 792
798 800 802 802 805 805 805 805 805 804 804 804 804 803 802 802 802 802 803 808 811 810 810 810 810 810 811 811 811 813 814 815 816 817 818 819 821 824 824 827 834 838 838 835 835 837 837 841 847 848 842 841 849 854 851 848 848 851 852 848 844 847 850 846 850 857 855 856 858 853 843 826 813 811 802 794 797 800 798 799 798 796 794 792 791 790 789 789
797 799 800 802 804 804 805 805 803 804 803 803 803 802 803 802 803 802 803 812 814 810 810 809 809 808 807 809 810 811 814 815 815 815 817 818 820 824 827 831 833 834 836 839 841 837 836 846 849 848 847 845 847 851 850 845 845 850 850 846 842 842 848 853 854 854 849 850 858 857 842 820 810 812 805 795 796 795 794 796 793 789 789 789 789 786 785 785
795 797 799 801 803 804 806 804 803 803 802 802 801 801 803 801 804 802 804 819 819 809 810 809 807 806 805 809 812 812 815 816 816 816 817 819 819 821 827 832 832 834 838 841 842 838 840 849 848 846 849 849 848 848 848 846 845 847 849 848 847 847 852 856 855 853 847 845 855 859 849 832 817 807 797 793 793 789 788 790 786 784 784 783 783 781 781 781
793 795 797 800 801 803 804 802 802 802 800 801 799 801 803 801 804 801 806 829 823 802 805 809 807 804 804 809 810 810 816 816 817 819 819 819 820 819 823 831 834 836 839 840 840 839 841 850 851 847 848 850 848 844 845 845 843 846 853 856 852 852 855 856 856 854 851 850 854 856 854 848 831 807 795 795 795 792 788 784 780 779 779 778 778 777 777 778
792 794 795 798 800 801 802 801 801 800 799 799 798 801 801 801 805 801 813 835 819 794 799 806 805 803 806 811 810 811 817 815 815 820 821 820 821 820 822 827 827 830 836 836 835 836 838 843 846 845 846 847 842 841 844 843 842 850 861 862 856 856 856 856 856 854 859 857 849 851 856 848 824 801 800 804 800 795 785 776 773 771 772 774 774 775 775 776
792 792 793 796 799 800 801 801 800 800 799 798 799 801 801 804 803 804 824 832 805 791 798 801 804 807 808 812 812 814 817 817 818 820 822 821 821 821 824 826 825 830 836 833 830 836 841 844 843 839 840 840 842 851 852 843 843 856 864 860 858 861 860 860 858 854 861 859 846 848 852 844 816 788 795 808 802 793 779 769 769 768 769 772 773 775 775 777
792 792 793 796 798 800 800 801 800 799 799 798 799 801 802 805 804 815 837 823 794 797 804 802 806 808 809 812 816 817 816 819 822 821 823 823 822 824 826 828 828 832 837 836 835 840 845 849 846 841 838 840 848 859 860 852 851 856 857 854 857 861 859 860 859 855 861 854 842 843 844 844 825 784 778 793 791 783 774 766 767 767 768 770 772 775 775 776
791 792 794 795 796 798 798 800 799 799 800 798 799 802 803 808 813 822 828 808 792 802 805 806 811 809 807 809 813 817 818 822 822 820 823 824 824 826 827 829 830 835 839 837 838 843 846 846 844 843 845 845 847 854 861 861 859 854 848 848 853 856 858 861 862 864 864 850 844 850 848 850 833 789 773 783 782 780 777 771 767 765 767 768 771 775 775 776
791 791 793 794 795 797 797 797 797 799 800 798 800 802 804 819 826 819 810 797 795 799 797 806 813 809 808 806 809 815 817 820 821 819 820 823 824 824 822 821 823 834 838 832 835 841 840 839 841 844 848 845 839 846 859 862 859 852 845 848 851 854 860 861 860 865 860 849 856 864 858 852 826 785 776 780 776 775 775 772 769 767 767 768 770 774 775 776
790 791 792 793 794 795 795 796 797 799 799 799 803 803 809 825 824 808 800 794 794 798 797 804 809 808 807 806 810 815 815 818 820 820 820 821 823 821 818 817 817 822 826 825 833 839 836 836 841 843 843 840 832 835 849 854 853 848 840 842 847 853 863 861 860 865 856 851 864 868 860 848 819 785 776 775 768 767 769 769 768 768 768 768 769 772 773 774
789 790 791 792 793 794 795 796 797 797 798 801 805 807 814 819 808 796 795 793 796 803 803 805 809 809 808 808 812 813 813 818 821 821 823 824 826 823 819 820 819 819 822 827 829 831 832 829 830 831 831 831 827 822 826 833 842 842 833 835 838 839 845 846 847 849 845 850 868 872 857 834 809 786 775 773 770 770 772 771 771 770 769 769 771 772 772 772
789 789 790 791 792 793 794 795 796 797 799 801 807 813 811 805 799 795 792 791 799 806 806 806 808 810 811 813 816 813 810 816 821 823 823 822 821 818 813 814 817 818 821 825 823 827 830 821 819 826 825 825 825 820 820 826 838 843 838 839 838 826 824 840 852 850 848 854 860 862 845 812 791 778 770 772 771 767 770 773 773 771 768 771 770 766 767 768
790 790 790 790 790 791 793 794 796 798 799 802 812 816 805 794 796 795 787 787 795 800 805 808 806 809 812 813 816 816 812 814 821 823 822 821 818 814 810 805 807 812 810 812 818 823 827 823 825 832 828 827 828 824 824 826 830 840 843 839 834 826 823 840 861 866 864 854 838 837 829 803 789 778 764 766 765 761 765 767 766 765 765 769 765 759 763 765
789 789 789 789 789 790 792 793 795 797 798 803 809 809 804 799 797 794 789 790 793 793 796 800 801 803 808 809 812 815 813 813 820 819 817 821 815 807 809 805 801 804 800 801 810 813 814 819 829 835 829 831 837 831 828 829 828 835 839 830 828 833 830 831 844 854 859 850 831 825 820 805 798 785 766 765 769 765 763 761 760 760 761 762 758 755 760 762
788 789 789 788 788 790 791 793 795 796 798 803 804 802 803 803 796 793 794 793 792 792 792 793 795 797 801 803 807 812 812 810 817 817 813 817 808 794 800 804 799 800 797 799 807 810 811 815 828 843 838 833 837 833 829 832 833 833 831 825 827 834 833 832 838 840 842 843 832 821 816 808 800 784 768 767 769 764 761 759 758 757 757 756 753 752 756 759
788 789 788 785 786 789 791 793 795 798 801 803 801 797 796 796 793 792 792 791 790 792 793 791 791 796 798 800 803 809 811 806 810 813 808 810 804 790 791 794 794 798 797 800 807 809 812 812 821 842 843 834 835 831 826 829 834 836 832 829 830 829 825 827 830 826 824 830 827 817 810 797 780 770 767 763 759 758 757 755 754 755 754 752 750 750 752 756
787 789 786 782 783 787 789 792 795 800 801 797 792 790 791 792 792 791 790 790 789 790 792 790 790 795 798 800 802 804 806 804 806 808 803 803 801 793 790 789 792 800 799 801 805 806 812 812 816 835 843 835 829 822 815 815 823 830 829 828 831 830 828 828 825 823 821 821 823 822 812 786 760 756 760 756 752 752 753 752 752 752 750 749 750 752 754 755
786 788 784 779 782 785 788 793 795 796 797 791 786 786 789 790 790 790 791 790 789 790 790 788 788 792 794 799 801 800 803 805 805 805 803 800 796 792 791 787 789 799 803 805 806 804 809 811 813 829 836 826 815 813 814 810 809 814 815 815 815 817 825 829 826 829 830 823 819 822 815 783 753 750 753 750 749 748 749 751 751 749 748 748 752 757 759 756
786 787 782 779 781 783 786 791 791 792 792 787 781 781 785 787 787 789 790 790 791 791 790 789 789 790 791 794 796 798 802 804 805 806 802 797 792 788 790 790 789 793 798 803 803 798 802 807 811 818 820 814 813 820 827 821 811 810 811 809 806 807 813 816 818 825 831 830 823 824 819 783 749 749 752 748 750 752 753 755 751 748 749 750 752 756 759 757
785 784 780 779 780 781 785 789 788 789 787 780 777 780 781 783 785 787 789 789 790 789 790 792 791 790 790 791 794 798 800 801 803 802 798 796 791 787 790 792 793 792 793 798 800 798 802 809 811 811 809 810 816 821 826 825 819 815 814 814 813 809 806 808 813 816 819 821 819 823 822 786 750 751 758 757 760 760 759 760 757 752 750 751 752 753 756 757
784 783 780 779 780 780 782 783 782 785 783 778 780 782 780 780 782 785 787 788 788 788 790 792 790 789 790 791 793 796 798 801 804 799 796 795 792 789 791 791 792 792 791 793 793 795 803 808 809 813 812 812 816 817 819 822 821 816 810 812 813 808 810 816 819 819 816 811 806 809 807 777 751 755 764 764 764 759 756 760 761 757 751 749 750 750 754 757
784 784 782 779 779 780 780 777 776 779 779 779 783 782 780 780 780 780 781 783 786 786 787 788 787 787 790 791 794 795 796 799 801 800 798 796 792 791 791 790 790 789 788 789 788 791 800 803 804 812 814 811 807 803 803 807 815 816 811 809 810 809 812 815 815 819 816 805 799 800 791 765 749 754 759 759 760 757 753 754 758 757 753 750 749 749 752 754
782 783 782 780 779 781 782 779 777 777 775 778 783 781 779 780 780 778 779 781 783 784 783 784 786 788 790 791 793 795 795 795 797 799 799 795 791 790 792 791 790 787 788 790 789 792 799 801 799 800 800 795 787 786 791 796 804 810 806 804 807 807 807 809 811 811 806 799 795 789 781 768 754 750 752 753 755 755 751 749 751 752 752 751 749 749 753 753
780 779 777 777 777 779 782 782 781 778 774 775 778 777 776 778 780 781 780 779 780 781 781 782 785 788 788 789 791 791 791 792 795 796 795 793 789 789 793 794 792 789 790 792 792 794 801 802 799 797 794 787 780 783 791 794 794 797 798 798 803 805 806 810 808 797 792 797 791 774 772 775 761 747 746 748 750 752 751 750 749 748 749 750 749 750 752 750
776 774 771 770 771 773 775 776 777 777 775 775 775 772 773 776 778 780 780 779 778 779 781 783 783 782 781 783 787 788 788 792 794 793 791 791 790 790 793 793 793 792 793 796 796 795 800 802 799 799 799 792 786 787 792 792 790 790 792 792 795 801 805 807 801 788 783 788 783 768 767 771 758 743 740 741 743 747 747 746 748 749 749 749 748 749 748 746
773 773 770 770 770 770 769 767 771 776 778 778 778 774 772 773 773 774 776 779 781 779 779 781 778 777 777 778 780 783 785 788 791 789 787 788 790 791 792 790 792 795 794 797 799 796 799 803 800 800 801 796 791 789 790 793 793 790 790 790 791 795 798 796 789 781 779 780 775 769 767 761 748 736 734 735 738 741 742 743 746 748 746 745 744 744 742 741
768 769 769 771 772 772 772 769 770 774 776 777 779 776 773 772 770 769 771 776 780 779 777 777 774 773 776 776 778 779 777 778 781 780 782 785 787 789 789 785 787 794 796 796 798 798 799 799 796 801 806 801 794 791 790 792 794 792 790 790 791 791 790 786 780 777 781 780 773 769 769 757 738 729 731 733 736 740 742 743 744 743 742 742 741 739 737 736
764 764 765 769 770 770 771 770 769 772 773 774 775 773 772 772 769 769 771 772 773 775 775 774 772 771 773 776 778 776 771 771 772 771 773 778 779 780 782 779 779 788 795 795 795 797 798 795 793 801 806 798 789 789 790 790 795 799 796 791 786 782 777 775 776 775 775 773 770 773 773 755 731 727 733 732 734 740 741 740 741 739 736 737 735 733 732 732
762 764 764 767 768 767 769 770 770 770 769 767 767 766 768 770 768 770 776 774 771 772 773 774 775 775 775 776 776 775 774 774 773 770 769 772 771 770 773 774 772 777 788 793 794 795 795 793 792 798 800 790 780 783 788 791 798 799 789 777 770 768 767 769 770 766 761 763 768 767 760 744 729 728 732 731 733 738 738 735 735 733 730 730 729 727 727 727